sat.trackr.live / text

‹ back to catalog

STARLINK-4719

NORAD 53774 · 2022-111B

PAYLOAD ACTIVE UNKNOWN

§ Identity

Operator
Country
US
Launch date
2022-09-11
Launch site
AFETR
Launch vehicle
Mass (kg)
RCS (m²)

Purposes: comms

External: N2YO · Heavens-Above · Gunter

§ Orbital elements

Epoch: 2026-09-20T21:22:48.798912Z

Period
94.01 min
Inclination
53.1596°
Eccentricity
0.0001008
Mean motion
15.31729913 rev/d
Perigee alt
470.0 km
Apogee alt
471.3 km
Semi-major
6,848.8 km
B*
-2.4403e-4
RAAN
116.7163°
Arg perigee
95.4798°
Mean anomaly
264.6319°
Rev number
22,332

§ Raw data

STARLINK-47191 53774U 22111B   26263.89084258 -.00007937  00000+0 -24403-3 0  99992 53774  53.1596 116.7163 0001008  95.4798 264.6319 15.31729913223327

JSON: /api/v1/satellites/53774 · /tle

For live sub-satellite position, see the globe view (requires WebGL).

§ Visibility from observer

Set your observer location to see the next 7 days of passes ≥ 10°. The values pass through the URL so the page stays shareable.

No JS? Fill the form by hand. The geolocation button needs JavaScript.